全球卫星定位系统 GPS 43星 (NAVSTAR 43 (USA 132))

导读

NAVSTAR 43(USA 132)是美国于1997年7月23日发射的GPS导航卫星,隶属于全球定位系统的NAVSTAR系列。作为美国第二代GPS组网卫星,它运行在约20200公里的中地球轨道,配备高精度原子钟,为全球军民用户提供全天候、高精度的三维定位、测速与授时服务,增强了GPS星座的覆盖可靠性与服务稳定性,持续支撑导航定位领域应用。

基本信息
目录编号:
24876
目录名称:
NAVSTAR 43 (USA 132)
国际标识:
1997-035A
轨道中心:
EARTH
卫星名称:
GPS 43星
卫星全名:
全球卫星定位系统 GPS 43星 (NAVSTAR 43 (USA 132))
卫星状态:
在轨 (已飞行10551 天)
发射日期:
1997-07-23 UTC
国别 :
美国 (US)
星等 :
--
轨道信息
数据来源 国际轨道数据 AOE轨道数据
星历时间 2026-06-12T13:10:44+0800
14小时前
查看轨道信息
2026-06-08T07:00:00+0800
4天前
查看轨道信息
半长轴 26560.34km 26560.331km
偏心率 0.0102225 0.0102049
轨道倾角 55.992° 55.990°
近地点辐角 56.828° 56.759°
升交点赤经 98.770° 98.936°
平近点角 304.120° 110.091°
近地点 19910.689km 19911.148km
远地点 20453.717km 20453.24km
周期 717.976分钟 717.976分钟
每日圈数 2.005637 2.005638
详细信息
平衡模式:
三轴稳定
覆盖范围:
全球
运营商:
美国太空军
运营商所在国:
美国
制造商(研发单位):
洛克希德·马丁公司
制造商所在国:
美国
使用方式:
暂无
工作目标:
为军用及民用领域提供定位与导航服务。
预期寿命:
10年
卫星简介
全球定位系统(英语:Global Positioning System,通常简称GPS),又称全球卫星定位系统,是美国国防部研制,美国太空军运营与维护的中地球轨道卫星导航系统。它可以为地球表面约98%的地区提供准确的定位、测速和高精度的标准时间。全球定位系统可满足位于全球地面任何一处或近地空间的军事用户连续且精确地确定三维位置、三维运动和时间的需求。该系统包括太空中的31颗GPS人造卫星.该卫星仍在工作。
2D轨道图
3D轨道图
轨道高度分析图
轨道倾角分析图
轨道综合分析图
查看轨道综合分析图